Regional Weather Roundup
Issued by NWS

Home | Current Version | Previous Version | Graphics & Text | Print | Product List | Glossary On
Versions: 1 2 3 4 5 6 7 8 9 10 11 12 13 14 15 16 17 18 19 20 21 22 23 24 25 26 27 28 29 30 31 32 33 34 35 36 37 38 39 40 41 42 43 44 45 46 47 48 49 50
000
ASUS43 KMPX 261001
RWRMN
WEATHER ROUNDUP FOR MINNESOTA
NATIONAL WEATHER SERVICE TWIN CITIES/CHANHASSEN MN
500 AM CDT SUN APR 26 2015


NOTE: "FAIR" INDICATES FEW OR NO CLOUDS BELOW 12,000 FEET WITH NO
SIGNIFICANT WEATHER AND/OR OBSTRUCTIONS TO VISIBILITY. N/A MEANS
CURRENT SKY AND/OR WEATHER CONDITIONS ARE NOT AVAILABLE.

MNZ060>063-068>070-261100-
   Twin Cities Metro

CITY           SKY/WX    TMP DP  RH WIND       PRES   REMARKS
TWIN CITIES    CLEAR     37  21  52 N6        30.03R
ST PAUL        CLEAR     38  20  48 N3        30.05R
CRYSTAL        CLEAR     36  21  54 N3        30.03R
BLAINE         CLEAR     34  25  69 N5        30.04R WCI  30
LAKEVILLE      CLEAR     36  23  60 NE3       30.02S
EDEN PRAIRIE   CLEAR     37  21  52 N7        30.02R
SOUTH ST PAUL  CLEAR     39  21  48 N3        30.03S
LAKE ELMO      FAIR      36  23  60 N3        30.04R
$$
MNZ001>005-007-008-013>017-022>024-027-028-261100-
   Northwest Minnesota

CITY           SKY/WX    TMP DP  RH WIND       PRES   REMARKS
BEMIDJI        CLEAR     29  22  77 CALM      30.07R
HALLOCK        CLEAR     39  27  60 E6        30.05R
ROSEAU         CLEAR     30  25  80 E5        30.08R WCI  25
WARROAD        CLEAR     36  30  80 E6        30.09R
THIEF RVR FALL CLEAR     37  27  65 CALM      30.07R
CROOKSTON      CLEAR     36  28  75 SE7       30.07R
FOSSTON        CLEAR     30  21  69 CALM      30.07R
DETROIT LAKES  CLEAR     37  14  38 SE5       30.06S
MOORHEAD       CLEAR     34  27  75 CALM      30.05R
PARK RAPIDS    CLEAR     34  15  46 E5        30.06R WCI  30
MAHNOMEN       FAIR      34  21  60 SE6       30.05S WCI  28
$$
MNZ006-009>011-018-025>026-261100-
   North Central Minnesota

CITY           SKY/WX    TMP DP  RH WIND       PRES   REMARKS
BAUDETTE       CLEAR     33  24  69 SE3       30.09R
FLAG ISLAND    CLEAR     43  21  42 E5        30.09R
INTL FALLS     CLEAR     25  20  81 CALM      30.11R
WASKISH        CLEAR     28  25  86 CALM      30.08R
BIG FORK       CLEAR     25  18  74 CALM      30.09R
LONGVILLE      CLEAR     25  19  80 CALM      30.08R
GRAND RAPIDS   CLEAR     25  14  63 E3        30.07S
CRANE LAKE     CLEAR     21  19  93 CALM      30.13S
ORR            CLEAR     25  16  68 CALM      30.08R
COOK           CLEAR     23  19  86 CALM      30.10R
WALKER         FAIR      35  16  45 CALM      30.07R
$$
MNZ012-019>021-037-261100-
   Northeast Minnesota

CITY           SKY/WX    TMP DP  RH WIND       PRES   REMARKS
DULUTH         CLEAR     32  13  45 E6        30.07R WCI  26
ELY            CLEAR     21  18  86 CALM      30.10R
HIBBING        CLEAR     22  16  78 CALM      30.08R
EVELETH        CLEAR     23  19  86 CALM      30.10R
DULUTH HARBOR  CLEAR     32  28  86 N3        30.11S
TWO HARBORS    CLEAR     30  19  64 N5        30.07R WCI  25
SILVER BAY     CLEAR     21  18  86 CALM      30.08R
GRAND MARAIS     N/A     40  16  37 N6        30.10R
G MARAIS ARPRT CLEAR     27  14  59 N7        30.08R WCI  19
$$
MNZ029>031-032-039>041-046>048-054>057-064-261100-
   West Central Minnesota

CITY           SKY/WX    TMP DP  RH WIND       PRES   REMARKS
FERGUS FALLS   CLEAR     41   3  20 E6        30.06R
WHEATON        CLEAR     30  28  93 CALM      30.06R
MORRIS         CLEAR     34  25  69 E10       30.03R WCI  26
ALEXANDRIA     CLEAR     33  17  51 E9        30.05R WCI  25
ELBOW LAKE     FAIR      37  21  52 SE8       30.04R
WADENA         CLEAR     28  18  64 E5        30.05S WCI  23
GLENWOOD       CLEAR     34  23  64 NE6       30.05R WCI  29
APPLETON       CLEAR     36  28  75 E8        30.03R
BENSON         CLEAR     36  23  60 E3        30.04R
ORTONVILLE     CLEAR     36  27  69 SE6       30.03R
MADISON        PTCLDY    36  28  75 E5        30.03R
WILLMAR        FAIR      36  27  69 NE9       30.04R
$$
MNZ033>034-036-042>043-049>051-058-059-261100-
   Central Minnesota

CITY           SKY/WX    TMP DP  RH WIND       PRES   REMARKS
ST CLOUD       CLEAR     31  22  69 NE5       30.05S WCI  26
SAUK CENTRE    FAIR      33  18  53 NE5       30.05R WCI  29
PAYNESVILLE    CLEAR     32  22  66 CALM      30.04S
AITKIN         CLEAR     27  19  74 CALM      30.06S
PINE RIVER     CLEAR     28  16  59 CALM      30.10R
BRAINERD       CLEAR     28  16  60 NE3       30.07R
STAPLES        CLEAR     30  14  51 CALM      30.06S
LONG PRAIRIE   FAIR      32  16  51 N5        30.05S WCI  27
LITTLE FALLS   CLEAR     28  19  69 CALM      30.06S
LITCHFIELD     CLEAR     36  25  64 NE5       30.04R
BUFFALO        CLEAR     33  23  68 N6        30.04F WCI  27
MAPLE LAKE     CLEAR     33  25  72 N5        30.05S WCI  29
$$
MNZ037-044-045-052-053-261100-
   East Central Minnesota

CITY           SKY/WX    TMP DP  RH WIND       PRES   REMARKS
PRINCETON      CLEAR     32  25  74 N3        30.06R
MORA           CLEAR     32  23  69 NE3       30.08S
CAMBRIDGE      CLEAR     34  23  64 N3        30.04R
RUSH CITY      CLEAR     30  23  74 NE6       30.06S WCI  24
MOOSE LAKE     CLEAR     30  19  64 CALM      30.07R
HINCKLEY       FAIR      30  25  80 N6        30.07S WCI  24
CLOQUET        CLEAR     27  16  63 CALM      30.07R
MCGREGOR       CLEAR     30  19  64 CALM      30.08R
$$
MNZ071>073-080-081-089-090-097-098-261100-
   Southwest Minnesota

CITY           SKY/WX    TMP DP  RH WIND       PRES   REMARKS
MONTEVIDEO     CLEAR     32  27  80 CALM      30.04R
GRANITE FALLS  CLEAR     35  26  70 CALM      30.04R
CANBY          PTCLDY    33  32  96 CALM      30.04R
MARSHALL       CLEAR     37  27  65 E5        30.01R
REDWOOD FALLS  CLEAR     37  26  64 NE5       30.02R
OLIVIA         CLEAR     32  23  69 NE5       30.02R WCI  27
WORTHINGTON    CLEAR     34  30  86 N3        30.01R
JACKSON        CLEAR     34  32  93 CALM      30.00R
TRACY          CLEAR     36  31  85 CALM      30.01R
SLAYTON        CLEAR     33  33  99 CALM      30.01R FOG
$$
MNZ065>067-074>077-082>085-091>093-261100-
   South Central Minnesota

CITY           SKY/WX    TMP DP  RH WIND       PRES   REMARKS
MANKATO        CLEAR     37  25  60 NE7       30.00S
NEW ULM        CLEAR     37  27  65 NE7       30.00S
ST JAMES       CLEAR     34  28  80 NW3       30.01S
FAIRMONT       CLEAR     36  28  75 N6        29.99R
GLENCOE        CLEAR     37  26  64 NE6       30.02R
FARIBAULT      CLEAR     36  27  69 N6        30.01R
OWATONNA       CLEAR     36  27  69 CALM      30.01R
WASECA         CLEAR     37  30  75 NE6       30.01R
ALBERT LEA     CLEAR     34  34 100 CALM      29.99S
$$
MNZ078>079-086>088-094>096-261100-
   Southeast Minnesota

CITY           SKY/WX    TMP DP  RH WIND       PRES   REMARKS
ROCHESTER      CLEAR     35  23  61 SE9       30.00R WCI  28
RED WING       CLEAR     36  21  55 CALM      30.02R
STANTON        CLEAR     34  27  74 E3        30.00S
DODGE CENTER   CLEAR     36  28  75 CALM      30.00R
WINONA         CLEAR     34  32  93 CALM      30.03R
AUSTIN         CLEAR     36  28  75 CALM      30.00R
PRESTON        CLEAR     37  21  52 CALM      30.01R
$$
ABBREVIATIONS USED IN REMARKS
   TC - TEMPERATURES IN CELSIUS
  WCI - WIND CHILL INDEX
   HX - HEAT INDEX
  VSB - VISIBILITY
$$



USA.gov is the U.S. government's official web portal to all federal, state and local government web resources and services.